Weather in Paspom

Russia / Komi Republic     61°40′39″N   53°36′28″E
temp.,
°C
wind,
m/s
gust,
m/s
humid.,
%
clouds,
%
prec.,
mm/h
press.,
hPa
HPBL,
m
27 february, sat
sat2700:00−21se41197100 0.0 1014350
03:00−22se3109797 0.0 1014283
06:00−23ese389787 0.0 1013248
09:00−20se389582 0.0 1013276
12:00−14ese368841 0.0 1013395
15:00−12e368722 0.0 1012508
18:00−17ene23940 0.0 101229
21:00−19ese22970 0.0 101420
28 february, sun
sun2800:00−21ese22993 0.0 101422
03:00−23se12962 0.0 101520
06:00−24se12950 0.0 101520
09:00−20se12890 0.0 1015162
12:00−14e11820 0.0 1015339
15:00−13ese128412 0.0 1016399
18:00−19ese019736 0.0 101620
21:00−21w009918 0.0 101820
1 march, mon
mon100:00−21sw119862 0.0 101820
03:00−21sw119765 0.0 101920
06:00−21ssw129656 0.0 101920
09:00−17ssw259266 0.0 1018224
12:00−12ssw368768 0.0 1016452
15:00−11ssw488871 0.0 1014509
18:00−13s41193100 0.0 1011444
21:00−12s41193100 0.1 1009451
2 march, tue
tue200:00−12s41094100 0.8 1006513
03:00−12s41194100 1.4 1003539
06:00−12s41094100 0.8 1000585
09:00−12s4994100 1.9 999537
12:00−9s4893100 0.7 999578
15:00−9s3793100 1.3 999541
18:00−10s2796100 0.3 999337
21:00−11sse2597100 0.5 1000163
3 march, wed
wed300:00−12sse249797 0.2 1000128
03:00−12sse239799 0.3 100090
06:00−13s2297100 0.1 100142
09:00−10s1395100 0.3 1001169
12:00−5ssw1292100 0.3 1002302
15:00−4w1295100 0.6 1002261
18:00−6nw2697100 0.5 1002259
21:00−8nw389597 0.7 1003281